Richmond International Airport Airport (RIC)

 

Airport Diagram
Current Weather/Forecast (VFR Conditions)
METAR KRIC 241554Z 03008KT 10SM FEW020 BKN065 22/17 A3017 RMK AO2 SLP218 T02220172
TAF KRIC 241120Z 2412/2512 01008KT P6SM VCSH BKN060 FM241500 04009KT P6SM BKN080 FM250600 02004KT P6SM SCT100

All Charts
General
Chart Name Download
AIRPORT DIAGRAM
TAKEOFF MINIMUMS
ALTERNATE MINIMUMS
HOT SPOT

Departures
Chart Name Download
COLIN EIGHT
KALLI FIVE (RNAV)
KALLI FIVE (RNAV), CONT.1
LUCYL FIVE (RNAV)
LUCYL FIVE (RNAV), CONT.1
READE SIX
READE SIX, CONT.1

Arrivals
Chart Name Download
DUCXS FOUR (RNAV)
POWTN FOUR (RNAV)
SPIDR THREE (RNAV)

Approaches
Chart Name Download
ILS OR LOC RWY 02
ILS OR LOC RWY 16
ILS OR LOC RWY 34
ILS RWY 34 (SA CAT I)
ILS RWY 34 (CAT II - III)
RNAV (RNP) Y RWY 02
RNAV (RNP) Y RWY 16
RNAV (RNP) Y RWY 20
RNAV (RNP) Y RWY 34
RNAV (GPS) RWY 07
RNAV (GPS) RWY 25
RNAV (GPS) Z RWY 02
RNAV (GPS) Z RWY 16
RNAV (GPS) Z RWY 20
RNAV (GPS) Z RWY 34
VOR RWY 02
VOR RWY 16
VOR RWY 20
VOR RWY 25
VOR RWY 34


Inbound Traffic (Arrivals)

No inbound traffic.


Outbound Traffic (Departures)

No outbound traffic.